Main page
METAR-TAF:

METAR-TAF

Airports :

Gonabad, Iran

latitude: 34-22-51N, longitude: 58-38-23E, elevation: 1100 m

Current weather observation

The report was made 43 minutes ago, at 15:00 UTC
Wind 12 kt from the Northeast
Temperature 31°C
Humidity 11%
Pressure 1010 hPa

METAR: OIMD 201500Z AUTO 05012KT //// // ////// 31/M03 Q1010

Time: 20:13 (15:43 UTC)


TAF: missing

Weather observations and forecasts of more than 4000 airports (METAR and TAF reports).

The available stations are represented by yellow and red dots on the map.

Hover mouse over dot to see the name of the station.

Then click to see weather observations and forecasts.

To change the map : click on the green buttons with a black cross to zoom in, on the green button with a dash to zoom out, or on the green arrows for adjacent maps.


METAR-TAF: